Weather History for Meadow Lake, CO

Change the Weather History Date:

Saturday, August 4, 2012

  Actual Average (KCOS) Record (KCOS)
Temperature  
Mean Temperature 63 °F 70 °F  
Max Temperature 75 °F 83 °F 94 °F (2008)
Min Temperature 51 °F 57 °F 39 °F (1935)
Degree Days  
Heating Degree Days 2 0  
Month to date heating degree days 0  
Since 1 June heating degree days 89  
Since 1 July heating degree days 10  
Cooling Degree Days 0 5  
Month to date cooling degree days 23  
Year to date cooling degree days 307  
Since 1 June cooling degree days 297  
Growing Degree Days 13 (Base 50)    
Moisture  
Dew Point 43 °F    
Average Humidity 51    
Maximum Humidity 77    
Minimum Humidity 27    
Precipitation  
Precipitation 0.00 in 0.12 in 3.98 in (1999)
Month to date precipitation 0.48  
Year to date precipitation 10.93  
Snow  
Snow 0.00 in 0.00 in 0.00 in (2002)
Month to date snowfall 0.0  
Since 1 June snowfall 0.0  
Since 1 July snowfall 0.0  
Snow Depth -    
Sea Level Pressure  
Sea Level Pressure 30.33 in    
Wind  
Wind Speed 15 mph (SE)    
Max Wind Speed 30 mph    
Max Gust Speed 41 mph    
Visibility 10 miles    
Events      
T = Trace of Precipitation, MM = Missing Value Source: NWS Daily Summary

Daily Weather History Graph

Daily Weather History Graph

Search for Another Location

Airport:

Trip Planner

Search our weather history database for the weather conditions in past years. The results will help you decide how hot, cold, wet, or windy it might be!

Date:

Astronomy

Aug. 04, 2012 Rise Set
Actual Time 6:02 AM MDT 8:05 PM MDT
Civil Twilight 5:32 AM MDT 8:35 PM MDT
Nautical Twilight 4:56 AM MDT 9:10 PM MDT
Astronomical Twilight 4:17 AM MDT 9:49 PM MDT
Moon 9:18 PM MDT (8/4) 8:49 AM MDT (8/4)
Length of Visible Light 15h 02m
Length of Day
14h 03m
Waning Gibbous, 92% of the Moon is Illuminated
Aug 4
Waning Gibbous
Aug 9
Last Quarter
Aug 17
New
Aug 24
First Quarter
Aug 31
Full

Hourly Weather History & Observations

Time (MDT) Temp. Dew Point Humidity Pressure Visibility Wind Dir Wind Speed Gust Speed Precip Events Conditions
12:14 AM 68.9 °F 35.6 °F 29% 30.17 in 10.0 mi North 13.8 mph - N/A   Clear
12:34 AM 69.8 °F 35.2 °F 28% 30.17 in 10.0 mi North 10.4 mph 16.1 mph N/A   Clear
12:54 AM 69.3 °F 35.6 °F 29% 30.17 in 10.0 mi North 13.8 mph - N/A   Clear
1:14 AM 69.1 °F 40.1 °F 35% 30.20 in 10.0 mi NNW 21.9 mph 34.5 mph N/A   Clear
1:34 AM 63.1 °F 49.8 °F 62% 30.20 in 10.0 mi North 26.5 mph 39.1 mph N/A   Clear
1:54 AM 59.0 °F 50.2 °F 73% 30.22 in 10.0 mi North 23.0 mph 35.7 mph N/A   Clear
2:14 AM 57.4 °F 49.1 °F 74% 30.23 in 10.0 mi North 24.2 mph 36.8 mph N/A   Clear
2:34 AM 56.7 °F 48.4 °F 74% 30.22 in 10.0 mi North 29.9 mph 41.4 mph N/A   Scattered Clouds
2:54 AM 56.3 °F 48.2 °F 74% 30.23 in 10.0 mi North 21.9 mph 39.1 mph N/A   Mostly Cloudy
3:14 AM 55.4 °F 46.8 °F 73% 30.23 in 10.0 mi North 24.2 mph 33.4 mph N/A   Scattered Clouds
3:34 AM 54.5 °F 46.6 °F 75% 30.23 in 10.0 mi North 20.7 mph 35.7 mph N/A   Clear
3:54 AM 54.5 °F 46.6 °F 75% 30.25 in 10.0 mi North 21.9 mph 34.5 mph N/A   Clear
4:14 AM 53.8 °F 46.4 °F 76% 30.26 in 10.0 mi North 23.0 mph 32.2 mph N/A   Clear
4:34 AM 53.1 °F 46.0 °F 77% 30.26 in 10.0 mi North 20.7 mph 38.0 mph N/A   Clear
4:54 AM 52.7 °F 45.7 °F 77% 30.26 in 10.0 mi North 23.0 mph 28.8 mph N/A   Clear
5:14 AM 52.7 °F 45.5 °F 76% 30.26 in 10.0 mi North 24.2 mph 31.1 mph N/A   Clear
5:34 AM 52.5 °F 45.3 °F 76% 30.27 in 10.0 mi North 19.6 mph 28.8 mph N/A   Clear
5:54 AM 52.0 °F 45.0 °F 77% 30.26 in 10.0 mi North 24.2 mph 31.1 mph N/A   Clear
6:14 AM 51.8 °F 45.0 °F 77% 30.28 in 10.0 mi North 20.7 mph 29.9 mph N/A   Clear
6:34 AM 52.0 °F 44.8 °F 76% 30.28 in 10.0 mi North 21.9 mph 31.1 mph N/A   Clear
6:54 AM 52.3 °F 44.4 °F 74% 30.28 in 10.0 mi North 19.6 mph 26.5 mph N/A   Clear
7:14 AM 53.2 °F 43.7 °F 70% 30.29 in 10.0 mi North 19.6 mph 26.5 mph N/A   Clear
7:34 AM 53.6 °F 43.2 °F 68% 30.30 in 10.0 mi North 19.6 mph 26.5 mph N/A   Clear
7:54 AM 56.1 °F 43.2 °F 62% 30.32 in 10.0 mi North 17.3 mph 21.9 mph N/A   Clear
8:14 AM 55.2 °F 41.9 °F 61% 30.33 in 10.0 mi North 17.3 mph 21.9 mph N/A   Clear
8:34 AM 58.3 °F 40.5 °F 52% 30.34 in 10.0 mi North 15.0 mph 20.7 mph N/A   Clear
8:54 AM 59.5 °F 39.6 °F 48% 30.36 in 10.0 mi North 10.4 mph 19.6 mph N/A   Clear
9:14 AM 60.6 °F 39.9 °F 46% 30.36 in 10.0 mi North 6.9 mph 17.3 mph N/A   Mostly Cloudy
9:34 AM 62.8 °F 39.7 °F 43% 30.36 in 10.0 mi NE 6.9 mph - N/A   Mostly Cloudy
9:54 AM 62.4 °F 40.6 °F 45% 30.37 in 10.0 mi North 5.8 mph - N/A   Overcast
10:14 AM 64.4 °F 41.9 °F 44% 30.37 in 10.0 mi Calm Calm - N/A   Overcast
10:34 AM 66.0 °F 41.7 °F 41% 30.38 in 10.0 mi SE 4.6 mph - N/A   Scattered Clouds
10:54 AM 66.7 °F 42.4 °F 41% 30.37 in 10.0 mi South 12.7 mph 18.4 mph N/A   Clear
11:14 AM 67.5 °F 42.3 °F 40% 30.37 in 10.0 mi SSE 6.9 mph 20.7 mph N/A   Clear
11:34 AM 66.6 °F 41.9 °F 41% 30.36 in 10.0 mi SSE 8.1 mph 19.6 mph N/A   Clear
11:54 AM 67.5 °F 45.1 °F 45% 30.36 in 10.0 mi South 15.0 mph 19.6 mph N/A   Scattered Clouds
12:14 PM 68.0 °F 46.0 °F 45% 30.36 in 10.0 mi SSE 8.1 mph 18.4 mph N/A   Scattered Clouds
12:34 PM 68.5 °F 45.3 °F 43% 30.36 in 10.0 mi SSE 5.8 mph 18.4 mph N/A   Clear
12:54 PM 69.6 °F 43.3 °F 39% 30.36 in 10.0 mi South 20.7 mph 25.3 mph N/A   Clear
1:14 PM 70.3 °F 43.0 °F 37% 30.36 in 10.0 mi SSE 10.4 mph 20.7 mph N/A   Clear
1:34 PM 70.9 °F 44.1 °F 38% 30.36 in 10.0 mi SSE 6.9 mph 19.6 mph N/A   Clear
1:54 PM 71.1 °F 43.3 °F 37% 30.35 in 10.0 mi SSE 9.2 mph 23.0 mph N/A   Clear
2:14 PM 72.5 °F 42.3 °F 34% 30.35 in 10.0 mi SSW 8.1 mph 23.0 mph N/A   Clear
2:34 PM 73.4 °F 41.7 °F 32% 30.35 in 10.0 mi South 11.5 mph 23.0 mph N/A   Clear
2:54 PM 72.3 °F 40.6 °F 32% 30.34 in 10.0 mi SSE 9.2 mph 23.0 mph N/A   Clear
3:14 PM 73.6 °F 39.7 °F 29% 30.34 in 10.0 mi South 10.4 mph 21.9 mph N/A   Clear
3:34 PM 74.8 °F 39.9 °F 28% 30.34 in 10.0 mi SSE 12.7 mph 18.4 mph N/A   Clear
3:54 PM 75.0 °F 39.6 °F 28% 30.34 in 10.0 mi SSE 11.5 mph 17.3 mph N/A   Clear
4:34 PM 75.4 °F 39.6 °F 27% 30.35 in 10.0 mi SSE 13.8 mph 19.6 mph N/A   Clear
4:54 PM 75.0 °F 39.0 °F 27% 30.35 in 10.0 mi South 10.4 mph 20.7 mph N/A   Clear
5:14 PM 74.5 °F 39.0 °F 28% 30.35 in 10.0 mi South 9.2 mph - N/A   Clear
5:34 PM 72.3 °F 39.2 °F 30% 30.36 in 10.0 mi South 10.4 mph - N/A   Clear
5:54 PM 73.9 °F 39.6 °F 29% 30.36 in 10.0 mi South 13.8 mph 19.6 mph N/A   Clear
6:14 PM 72.9 °F 39.7 °F 30% 30.36 in 10.0 mi South 12.7 mph 16.1 mph N/A   Clear
6:34 PM 72.1 °F 40.1 °F 31% 30.38 in 10.0 mi South 11.5 mph 19.6 mph N/A   Clear
6:54 PM 70.9 °F 40.3 °F 33% 30.38 in 10.0 mi South 12.7 mph 20.7 mph N/A   Clear
7:14 PM 69.8 °F 40.1 °F 34% 30.38 in 10.0 mi South 11.5 mph - N/A   Clear
7:34 PM 68.0 °F 41.4 °F 38% 30.39 in 10.0 mi South 9.2 mph - N/A   Clear
7:54 PM 65.3 °F 42.8 °F 44% 30.39 in 10.0 mi South 9.2 mph - N/A   Clear
8:14 PM 63.7 °F 43.7 °F 48% 30.40 in 10.0 mi South 8.1 mph - N/A   Clear
8:34 PM 62.6 °F 44.2 °F 51% 30.41 in 10.0 mi South 6.9 mph - N/A   Clear
8:54 PM 61.5 °F 44.6 °F 54% 30.42 in 10.0 mi South 5.8 mph - N/A   Clear
9:14 PM 61.0 °F 44.2 °F 54% 30.43 in 10.0 mi South 9.2 mph - N/A   Clear
9:34 PM 60.6 °F 44.1 °F 54% 30.44 in 10.0 mi South 9.2 mph - N/A   Clear
9:54 PM 59.4 °F 44.4 °F 58% 30.44 in 10.0 mi SSE 8.1 mph - N/A   Clear
10:14 PM 59.9 °F 44.1 °F 56% 30.44 in 10.0 mi South 9.2 mph - N/A   Clear
10:34 PM 58.8 °F 43.9 °F 58% 30.44 in 10.0 mi SE 6.9 mph - N/A   Clear
10:54 PM 58.5 °F 44.1 °F 59% 30.44 in 10.0 mi South 10.4 mph 17.3 mph N/A   Clear
11:14 PM 57.9 °F 44.2 °F 60% 30.45 in 10.0 mi SE 4.6 mph - N/A   Clear
11:34 PM 56.8 °F 44.6 °F 64% 30.45 in 10.0 mi SE 6.9 mph - N/A   Clear
11:54 PM 56.7 °F 45.0 °F 65% 30.45 in 10.0 mi South 8.1 mph - N/A   Clear